Location: Gälforsberget
(66.6500°N, 22.4167°E)
Time: 07:40:30
(UTC+00:00)

Cosmos 304 Rocket - Pass Details

Date: 11 April 2026
Orbit: 668 x 676 km, 74.0° (Epoch: 12 May)

Event Time Altitude Azimuth Distance (km) Brightness Sun altitude
Rises 20:58:45 0° 315° (NW) 3,032 8.5 -12.9°
Reaches altitude 10° 21:01:03 10° 316° (NW) 2,116 7.5 -13.0°
Maximum altitude 21:05:50 88° 44° (NE) 683 3.7 -13.2°
Enters shadow 21:09:22 18° 136° (SE) 1,635 5.2 -13.3°
